GW0064 Weather Reports


time (UTC)temp
C
wind
direction
speed
KPH
gust
KPH
rain 1hr
cm
rain 24hr
cm
rain mn
cm
humidity
%
barometer
mb
20260503190502 10 49 0.0 4.8 0.05 0.05 0.05 78 1015.3
20260503190005 10 49 0.0 4.8 0.05 0.05 0.05 77 1015.5
20260503185500 10 53 1.6 3.2 0.05 0.05 0.05 78 1015.7
20260503185002 10 243 0.0 1.6 0.05 0.05 0.05 75 1015.6
20260503184501 10 243 0.0 8.0 0.05 0.05 0.05 72 1015.7
20260503183501 10 243 3.2 16.1 0.03 0.03 0.03 72 1015.7
20260503183000 10 233 8.0 19.3 0.03 0.03 0.03 69 1015.8
20260503182503 11 259 11.3 25.7 0.00 0.00 0.00 68 1015.9
20260503182003 11 234 16.1 25.7 0.00 0.00 0.00 65 1016.0
20260503181501 -17 248 16.1 33.8 0.00 0.00 0.00 100 1016.0
20260503181000 12 241 22.5 38.6 0.00 0.00 0.00 60 1015.9
20260503180501 13 256 17.7 35.4 0.00 0.00 0.00 52 1015.6
20260503175500 13 250 17.7 27.4 0.00 0.00 0.00 49 1015.7
20260503175002 -17 236 12.9 30.6 0.00 0.00 0.00 1015.8
20260503174501 -17 238 16.1 32.2 0.00 0.00 0.00 1015.8
20260503174001 -17 252 19.3 32.2 0.00 0.00 0.00 49 1015.9
20260503173001 -17 247 17.7 25.7 0.00 0.00 0.00 49 1016.0
20260503172001 14 231 19.3 32.2 0.00 0.00 0.00 48 1016.2
20260503171500 -17 247 20.9 32.2 0.00 0.00 0.00 47 1016.2
20260503171003 -17 236 17.7 30.6 0.00 0.00 0.00 100 1016.1
20260503170501 14 213 17.7 29.0 0.00 0.00 0.00 1016.2
20260503151001 13 229 17.7 25.7 0.00 0.00 0.00 49 1017.5
20260503150503 13 240 16.1 25.7 0.00 0.00 0.00 50 1017.5
20260503131002 8 247 14.5 22.5 0.00 0.00 0.00 58 1017.8
20260503130501 8 248 12.9 24.1 0.00 0.00 0.00 57 1017.8
20260503110500 4 261 8.0 14.5 0.00 0.00 0.00 68 1017.6
20260503090500 4 182 3.2 8.0 0.00 0.00 0.00 68 1017.4
20260503081459 5 219 3.2 6.4 0.00 0.00 0.00 67 1017.5
20260503081000 -17 249 3.2 6.4 0.00 0.00 0.00 67 1017.5
20260503072459 4 202 1.6 6.4 0.00 0.00 0.00 68 1017.6
20260503072001 4 226 3.2 6.4 0.00 0.00 0.00 67 1017.6
20260503071500 4 198 3.2 6.4 0.00 0.00 0.00 68 1017.6
20260503071000 4 220 1.6 6.4 0.00 0.00 0.00 68 1017.6
20260503070501 3 222 1.6 3.2 0.00 0.00 0.00 68 1017.6
20260503054001 3 199 0.0 1.6 0.00 0.00 0.00 71 1018.3
20260503052959 3 200 1.6 1.6 0.00 0.00 0.00 71 1018.3
20260503052500 3 199 0.0 3.2 0.00 0.00 0.00 71 1018.3
20260503051959 3 209 1.6 3.2 0.00 0.00 0.00 72 1018.4
20260503051000 3 196 1.6 3.2 0.00 0.00 0.00 71 1018.3
20260503050500 3 194 1.6 3.2 0.00 0.00 0.00 71 1018.4
20260503050005 3 194 1.6 3.2 0.00 0.00 0.00 71 1018.4
20260503045502 3 196 1.6 3.2 0.00 0.00 0.00 71 1018.4
20260503044002 4 200 1.6 3.2 0.00 0.00 0.00 71 1018.3
20260503043502 4 186 1.6 3.2 0.00 0.00 0.00 71 1018.4
20260503043004 4 186 0.0 1.6 0.00 0.00 0.00 71 1018.4
20260503042003 4 209 1.6 3.2 0.00 0.00 0.00 70 1018.4
20260503041503 4 188 3.2 3.2 0.00 0.00 0.00 69 1018.3
20260503041003 4 171 1.6 3.2 0.00 0.00 0.00 69 1018.3
20260503040502 4 167 3.2 3.2 0.00 0.00 0.00 68 1018.3
20260503035503 5 171 3.2 3.2 0.00 0.00 0.00 68 1018.3
20260503035003 5 180 1.6 3.2 0.00 0.00 0.00 68 1018.4
20260503034502 5 194 1.6 3.2 0.00 0.00 0.00 68 1018.3
20260503034002 5 197 1.6 4.8 0.00 0.00 0.00 68 1018.3
20260503033503 4 195 1.6 3.2 0.00 0.00 0.00 68 1018.3
20260503033003 4 159 3.2 3.2 0.00 0.00 0.00 68 1018.4
20260503032502 5 165 1.6 3.2 0.00 0.00 0.00 68 1018.3
20260503031502 4 191 1.6 3.2 0.00 0.00 0.00 70 1018.5
20260503031004 4 169 0.0 0.0 0.00 0.00 0.00 71 1018.4
20260503030503 3 89 0.0 0.0 0.00 0.00 0.00 73 1018.5
20260503030006 3 88 0.0 0.0 0.00 0.00 0.00 73 1018.5
20260503025502 4 88 0.0 0.0 0.00 0.00 0.00 71 1018.5
20260503025002 4 88 0.0 0.0 0.00 0.00 0.00 70 1018.5
20260503024503 5 88 0.0 0.0 0.00 0.00 0.00 68 1018.5
20260503024007 5 88 0.0 0.0 0.00 0.00 0.00 67 1018.4
20260503023502 5 88 0.0 0.0 0.00 0.00 0.00 66 1018.4
20260503023004 5 88 0.0 0.0 0.00 0.00 0.00 65 1018.4
20260503022504 5 88 0.0 0.0 0.00 0.00 0.00 64 1018.3
20260503022003 5 88 0.0 1.6 0.00 0.00 0.00 63 1018.4
20260503021502 5 88 0.0 1.6 0.00 0.00 0.00 63 1018.3
20260503021002 5 88 0.0 1.6 0.00 0.00 0.00 64 1018.3
20260503020502 6 88 0.0 0.0 0.00 0.00 0.00 63 1018.3
20260503020004 6 88 0.0 1.6 0.00 0.00 0.00 61 1018.3
20260503015001 6 88 0.0 1.6 0.00 0.00 0.00 58 1018.1
20260503014504 6 52 0.0 1.6 0.00 0.00 0.00 59 1018.1
20260503014003 6 288 0.0 0.0 0.00 0.00 0.00 55 1018.1
20260503013501 6 288 0.0 0.0 0.00 0.00 0.00 56 1018.1
20260503013002 6 288 0.0 0.0 0.00 0.00 0.00 56 1018.0
20260503012502 7 288 0.0 0.0 0.00 0.00 0.00 56 1018.0
20260503012001 7 288 0.0 0.0 0.00 0.00 0.00 53 1018.0
20260503011503 7 288 0.0 0.0 0.00 0.00 0.00 56 1018.1
20260503011002 7 288 0.0 0.0 0.00 0.00 0.00 59 1018.1
20260503010503 7 288 0.0 1.6 0.00 0.00 0.00 56 1018.0
20260503010004 7 288 0.0 1.6 0.00 0.00 0.00 52 1018.0
20260503005503 8 288 0.0 3.2 0.00 0.00 0.00 51 1018.0
20260503005001 8 288 1.6 3.2 0.00 0.00 0.00 50 1017.9
20260503004501 8 292 1.6 3.2 0.00 0.00 0.00 47 1017.9
20260503003501 9 317 1.6 4.8 0.00 0.00 0.00 44 1018.0
20260503003002 9 316 3.2 6.4 0.00 0.00 0.00 42 1017.9
20260503002504 10 299 3.2 9.7 0.00 0.00 0.00 41 1017.9
20260503002001 10 298 6.4 9.7 0.00 0.00 0.00 38 1017.8
20260503001501 10 293 6.4 9.7 0.00 0.00 0.00 39 1017.8
20260503000502 10 302 6.4 11.3 0.00 0.00 0.00 37 1017.7
20260503000004 10 307 8.0 12.9 0.00 0.00 0.00 36 1017.7
20260502235502 10 347 8.0 14.5 0.00 0.00 0.00 37 1017.7
20260502235001 10 33 4.8 14.5 0.00 0.00 0.00 38 1017.6
20260502234501 10 343 6.4 16.1 0.00 0.00 0.00 37 1017.6
20260502234001 10 318 9.7 16.1 0.00 0.00 0.00 36 1017.7
20260502233503 10 323 8.0 14.5 0.00 0.00 0.00 36 1017.6
20260502233003 11 327 6.4 14.5 0.00 0.00 0.00 38 1017.7
20260502232501 11 330 4.8 12.9 0.00 0.00 0.00 38 1017.6
20260502232002 11 343 6.4 14.5 0.00 0.00 0.00 36 1017.7
20260502231502 11 316 8.0 17.7 0.00 0.00 0.00 36 1017.7
20260502230503 11 306 8.0 14.5 0.00 0.00 0.00 37 1017.7
20260502230004 -17 298 8.0 22.5 0.00 0.00 0.00 1017.7
20260502225502 11 325 9.7 22.5 0.00 0.00 0.00 37 1017.7
20260502225001 11 278 4.8 12.9 0.00 0.00 0.00 37 1017.6
20260502224501 11 333 6.4 14.5 0.00 0.00 0.00 1017.7
20260502224001 10 36 6.4 14.5 0.00 0.00 0.00 39 1017.7
20260502223502 -17 295 8.0 16.1 0.00 0.00 0.00 1017.8
20260502223002 -17 295 9.7 16.1 0.00 0.00 0.00 100 1017.8
20260502222501 -17 333 9.7 16.1 0.00 0.00 0.00 99 1017.8
20260502222001 -17 3 9.7 22.5 0.00 0.00 0.00 1017.8
20260502221503 -17 38 11.3 25.7 0.00 0.00 0.00 1017.7
20260502221002 -17 310 12.9 25.7 0.00 0.00 0.00 1017.7
20260502220501 -17 304 8.0 17.7 0.00 0.00 0.00 1017.6
20260502220004 -17 323 8.0 14.5 0.00 0.00 0.00 1017.6
20260502215501 -17 298 8.0 20.9 0.00 0.00 0.00 1017.7
20260502214501 -17 310 9.7 20.9 0.00 0.00 0.00 100 1017.7
20260502214001 11 12 14.5 20.9 0.00 0.00 0.00 38 1017.6
20260502213502 11 48 4.8 20.9 0.00 0.00 0.00 97 1017.6
20260502212501 11 283 11.3 20.9 0.00 0.00 0.00 39 1017.6
20260502212001 11 302 11.3 20.9 0.00 0.00 0.00 41 1017.6
20260502211501 -17 339 8.0 17.7 0.00 0.00 0.00 100 1017.7
20260502211001 11 329 9.7 17.7 0.00 0.00 0.00 100 1017.7
20260502205501 -17 39 11.3 19.3 0.00 0.00 0.00 1017.7
20260502205003 -17 39 9.7 17.7 0.00 0.00 0.00 1017.7
20260502204502 11 27 11.3 20.9 0.00 0.00 0.00 1017.8
20260502204003 -17 340 9.7 20.9 0.00 0.00 0.00 42 1017.9
20260502203501 -17 25 8.0 16.1 0.00 0.00 0.00 100 1017.8
20260502203001 -17 47 9.7 17.7 0.00 0.00 0.00 1017.9
20260502202502 -17 314 11.3 17.7 0.00 0.00 0.00 1018.0
20260502202001 -17 303 8.0 16.1 0.00 0.00 0.00 43 1018.0
20260502201503 11 31 6.4 16.1 0.00 0.00 0.00 41 1018.0
20260502201002 10 13 8.0 16.1 0.00 0.00 0.00 43 1018.1
20260502200004 10 23 6.4 19.3 0.00 0.00 0.00 41 1018.3
20260502195501 10 26 8.0 22.5 0.00 0.00 0.00 43 1018.2
20260502195003 11 349 8.0 22.5 0.00 0.00 0.00 41 1018.3
20260502194502 10 331 14.5 20.9 0.00 0.00 0.00 43 1018.3
20260502194001 10 299 9.7 20.9 0.00 0.00 0.00 41 1018.3
20260502193503 -17 294 11.3 19.3 0.00 0.00 0.00 1018.4
20260502193001 -17 329 8.0 19.3 0.00 0.00 0.00 1018.5
20260502192502 -17 323 3.2 16.1 0.00 0.00 0.00 1018.5
20260502192001 -17 333 9.7 20.9 0.00 0.00 0.00 1018.6
20260502191501 -17 27 12.9 20.9 0.00 0.00 0.00 100 1018.6
20260502191002 -17 308 9.7 17.7 0.00 0.00 0.00 1018.6